Index of /20260410/WXO-DD/model_rdps/10km/18/016
Name Last modified Size Description
Parent Directory -
20260410T18Z_MSC_RDPS_AbsoluteVorticity_IsbL-0250_RLatLon0.09_PT016H.grib2 2026-04-10 20:49 605K
20260410T18Z_MSC_RDPS_AbsoluteVorticity_IsbL-0500_RLatLon0.09_PT016H.grib2 2026-04-10 20:49 562K
20260410T18Z_MSC_RDPS_AbsoluteVorticity_IsbL-0700_RLatLon0.09_PT016H.grib2 2026-04-10 20:49 627K
20260410T18Z_MSC_RDPS_AbsoluteVorticity_IsbL-0850_RLatLon0.09_PT016H.grib2 2026-04-10 20:49 787K
20260410T18Z_MSC_RDPS_AirTemp_AGL-120m_RLatLon0.09_PT016H.grib2 2026-04-10 20:49 395K
20260410T18Z_MSC_RDPS_AirTemp_AGL-2m_RLatLon0.09_PT016H.grib2 2026-04-10 20:49 639K
20260410T18Z_MSC_RDPS_AirTemp_AGL-40m_RLatLon0.09_PT016H.grib2 2026-04-10 20:49 413K
20260410T18Z_MSC_RDPS_AirTemp_AGL-80m_RLatLon0.09_PT016H.grib2 2026-04-10 20:49 404K
20260410T18Z_MSC_RDPS_AirTemp_IsbL-0001_RLatLon0.09_PT016H.grib2 2026-04-10 20:49 230K
20260410T18Z_MSC_RDPS_AirTemp_IsbL-0005_RLatLon0.09_PT016H.grib2 2026-04-10 20:49 262K
20260410T18Z_MSC_RDPS_AirTemp_IsbL-0010_RLatLon0.09_PT016H.grib2 2026-04-10 20:49 268K
20260410T18Z_MSC_RDPS_AirTemp_IsbL-0020_RLatLon0.09_PT016H.grib2 2026-04-10 20:49 372K
20260410T18Z_MSC_RDPS_AirTemp_IsbL-0030_RLatLon0.09_PT016H.grib2 2026-04-10 20:49 393K
20260410T18Z_MSC_RDPS_AirTemp_IsbL-0050_RLatLon0.09_PT016H.grib2 2026-04-10 20:49 333K
20260410T18Z_MSC_RDPS_AirTemp_IsbL-0100_RLatLon0.09_PT016H.grib2 2026-04-10 20:49 429K
20260410T18Z_MSC_RDPS_AirTemp_IsbL-0150_RLatLon0.09_PT016H.grib2 2026-04-10 20:49 447K
20260410T18Z_MSC_RDPS_AirTemp_IsbL-0175_RLatLon0.09_PT016H.grib2 2026-04-10 20:49 419K
20260410T18Z_MSC_RDPS_AirTemp_IsbL-0200_RLatLon0.09_PT016H.grib2 2026-04-10 20:49 417K
20260410T18Z_MSC_RDPS_AirTemp_IsbL-0225_RLatLon0.09_PT016H.grib2 2026-04-10 20:49 412K
20260410T18Z_MSC_RDPS_AirTemp_IsbL-0250_RLatLon0.09_PT016H.grib2 2026-04-10 20:49 418K
20260410T18Z_MSC_RDPS_AirTemp_IsbL-0275_RLatLon0.09_PT016H.grib2 2026-04-10 20:49 402K
20260410T18Z_MSC_RDPS_AirTemp_IsbL-0300_RLatLon0.09_PT016H.grib2 2026-04-10 20:49 435K
20260410T18Z_MSC_RDPS_AirTemp_IsbL-0350_RLatLon0.09_PT016H.grib2 2026-04-10 20:49 424K
20260410T18Z_MSC_RDPS_AirTemp_IsbL-0400_RLatLon0.09_PT016H.grib2 2026-04-10 20:49 393K
20260410T18Z_MSC_RDPS_AirTemp_IsbL-0450_RLatLon0.09_PT016H.grib2 2026-04-10 20:49 399K
20260410T18Z_MSC_RDPS_AirTemp_IsbL-0500_RLatLon0.09_PT016H.grib2 2026-04-10 20:49 410K
20260410T18Z_MSC_RDPS_AirTemp_IsbL-0550_RLatLon0.09_PT016H.grib2 2026-04-10 20:49 429K
20260410T18Z_MSC_RDPS_AirTemp_IsbL-0600_RLatLon0.09_PT016H.grib2 2026-04-10 20:49 345K
20260410T18Z_MSC_RDPS_AirTemp_IsbL-0650_RLatLon0.09_PT016H.grib2 2026-04-10 20:49 357K
20260410T18Z_MSC_RDPS_AirTemp_IsbL-0700_RLatLon0.09_PT016H.grib2 2026-04-10 20:49 379K
20260410T18Z_MSC_RDPS_AirTemp_IsbL-0750_RLatLon0.09_PT016H.grib2 2026-04-10 20:49 412K
20260410T18Z_MSC_RDPS_AirTemp_IsbL-0800_RLatLon0.09_PT016H.grib2 2026-04-10 20:49 458K
20260410T18Z_MSC_RDPS_AirTemp_IsbL-0850_RLatLon0.09_PT016H.grib2 2026-04-10 20:49 507K
20260410T18Z_MSC_RDPS_AirTemp_IsbL-0875_RLatLon0.09_PT016H.grib2 2026-04-10 20:49 521K
20260410T18Z_MSC_RDPS_AirTemp_IsbL-0900_RLatLon0.09_PT016H.grib2 2026-04-10 20:49 527K
20260410T18Z_MSC_RDPS_AirTemp_IsbL-0925_RLatLon0.09_PT016H.grib2 2026-04-10 20:49 519K
20260410T18Z_MSC_RDPS_AirTemp_IsbL-0950_RLatLon0.09_PT016H.grib2 2026-04-10 20:49 521K
20260410T18Z_MSC_RDPS_AirTemp_IsbL-0970_RLatLon0.09_PT016H.grib2 2026-04-10 20:49 532K
20260410T18Z_MSC_RDPS_AirTemp_IsbL-0985_RLatLon0.09_PT016H.grib2 2026-04-10 20:49 525K
20260410T18Z_MSC_RDPS_AirTemp_IsbL-1000_RLatLon0.09_PT016H.grib2 2026-04-10 20:49 514K
20260410T18Z_MSC_RDPS_AirTemp_IsbL-1015_RLatLon0.09_PT016H.grib2 2026-04-10 20:49 506K
20260410T18Z_MSC_RDPS_Albedo_Sfc_RLatLon0.09_PT016H.grib2 2026-04-10 20:49 169K
20260410T18Z_MSC_RDPS_CAPE_Sfc_RLatLon0.09_PT016H.grib2 2026-04-10 20:49 1.5M
20260410T18Z_MSC_RDPS_CIN_Sfc_RLatLon0.09_PT016H.grib2 2026-04-10 20:49 1.1M
20260410T18Z_MSC_RDPS_CloudWater_EAtm_RLatLon0.09_PT016H.grib2 2026-04-10 20:49 211K
20260410T18Z_MSC_RDPS_ConvectivePrecip-Accum_Sfc_RLatLon0.09_PT016H.grib2 2026-04-10 20:49 780K
20260410T18Z_MSC_RDPS_DewPointDepression_AGL-2m_RLatLon0.09_PT016H.grib2 2026-04-10 20:49 379K
20260410T18Z_MSC_RDPS_DewPointDepression_IsbL-0001_RLatLon0.09_PT016H.grib2 2026-04-10 20:49 193
20260410T18Z_MSC_RDPS_DewPointDepression_IsbL-0005_RLatLon0.09_PT016H.grib2 2026-04-10 20:49 193
20260410T18Z_MSC_RDPS_DewPointDepression_IsbL-0010_RLatLon0.09_PT016H.grib2 2026-04-10 20:49 193
20260410T18Z_MSC_RDPS_DewPointDepression_IsbL-0020_RLatLon0.09_PT016H.grib2 2026-04-10 20:49 2.3K
20260410T18Z_MSC_RDPS_DewPointDepression_IsbL-0030_RLatLon0.09_PT016H.grib2 2026-04-10 20:49 16K
20260410T18Z_MSC_RDPS_DewPointDepression_IsbL-0050_RLatLon0.09_PT016H.grib2 2026-04-10 20:49 110K
20260410T18Z_MSC_RDPS_DewPointDepression_IsbL-0100_RLatLon0.09_PT016H.grib2 2026-04-10 20:49 129K
20260410T18Z_MSC_RDPS_DewPointDepression_IsbL-0150_RLatLon0.09_PT016H.grib2 2026-04-10 20:49 153K
20260410T18Z_MSC_RDPS_DewPointDepression_IsbL-0175_RLatLon0.09_PT016H.grib2 2026-04-10 20:49 182K
20260410T18Z_MSC_RDPS_DewPointDepression_IsbL-0200_RLatLon0.09_PT016H.grib2 2026-04-10 20:49 214K
20260410T18Z_MSC_RDPS_DewPointDepression_IsbL-0225_RLatLon0.09_PT016H.grib2 2026-04-10 20:49 249K
20260410T18Z_MSC_RDPS_DewPointDepression_IsbL-0250_RLatLon0.09_PT016H.grib2 2026-04-10 20:49 285K
20260410T18Z_MSC_RDPS_DewPointDepression_IsbL-0275_RLatLon0.09_PT016H.grib2 2026-04-10 20:49 299K
20260410T18Z_MSC_RDPS_DewPointDepression_IsbL-0300_RLatLon0.09_PT016H.grib2 2026-04-10 20:49 319K
20260410T18Z_MSC_RDPS_DewPointDepression_IsbL-0350_RLatLon0.09_PT016H.grib2 2026-04-10 20:49 327K
20260410T18Z_MSC_RDPS_DewPointDepression_IsbL-0400_RLatLon0.09_PT016H.grib2 2026-04-10 20:49 334K
20260410T18Z_MSC_RDPS_DewPointDepression_IsbL-0450_RLatLon0.09_PT016H.grib2 2026-04-10 20:49 345K
20260410T18Z_MSC_RDPS_DewPointDepression_IsbL-0500_RLatLon0.09_PT016H.grib2 2026-04-10 20:49 357K
20260410T18Z_MSC_RDPS_DewPointDepression_IsbL-0550_RLatLon0.09_PT016H.grib2 2026-04-10 20:49 368K
20260410T18Z_MSC_RDPS_DewPointDepression_IsbL-0600_RLatLon0.09_PT016H.grib2 2026-04-10 20:49 373K
20260410T18Z_MSC_RDPS_DewPointDepression_IsbL-0650_RLatLon0.09_PT016H.grib2 2026-04-10 20:49 374K
20260410T18Z_MSC_RDPS_DewPointDepression_IsbL-0700_RLatLon0.09_PT016H.grib2 2026-04-10 20:49 380K
20260410T18Z_MSC_RDPS_DewPointDepression_IsbL-0750_RLatLon0.09_PT016H.grib2 2026-04-10 20:49 400K
20260410T18Z_MSC_RDPS_DewPointDepression_IsbL-0800_RLatLon0.09_PT016H.grib2 2026-04-10 20:49 437K
20260410T18Z_MSC_RDPS_DewPointDepression_IsbL-0850_RLatLon0.09_PT016H.grib2 2026-04-10 20:49 467K
20260410T18Z_MSC_RDPS_DewPointDepression_IsbL-0875_RLatLon0.09_PT016H.grib2 2026-04-10 20:49 464K
20260410T18Z_MSC_RDPS_DewPointDepression_IsbL-0900_RLatLon0.09_PT016H.grib2 2026-04-10 20:49 453K
20260410T18Z_MSC_RDPS_DewPointDepression_IsbL-0925_RLatLon0.09_PT016H.grib2 2026-04-10 20:49 443K
20260410T18Z_MSC_RDPS_DewPointDepression_IsbL-0950_RLatLon0.09_PT016H.grib2 2026-04-10 20:49 438K
20260410T18Z_MSC_RDPS_DewPointDepression_IsbL-0970_RLatLon0.09_PT016H.grib2 2026-04-10 20:49 433K
20260410T18Z_MSC_RDPS_DewPointDepression_IsbL-0985_RLatLon0.09_PT016H.grib2 2026-04-10 20:49 429K
20260410T18Z_MSC_RDPS_DewPointDepression_IsbL-1000_RLatLon0.09_PT016H.grib2 2026-04-10 20:49 423K
20260410T18Z_MSC_RDPS_DewPointDepression_IsbL-1015_RLatLon0.09_PT016H.grib2 2026-04-10 20:49 414K
20260410T18Z_MSC_RDPS_DewPoint_AGL-2m_RLatLon0.09_PT016H.grib2 2026-04-10 20:49 310K
20260410T18Z_MSC_RDPS_DownwardLongwaveRadiationFlux-Accum_Sfc_RLatLon0.09_PT016H.grib2 2026-04-10 20:49 503K
20260410T18Z_MSC_RDPS_DownwardShortwaveRadiationFlux-Accum_NTAtm_RLatLon0.09_PT016H.grib2 2026-04-10 20:49 113K
20260410T18Z_MSC_RDPS_DownwardShortwaveRadiationFlux-Accum_Sfc_RLatLon0.09_PT016H.grib2 2026-04-10 20:49 507K
20260410T18Z_MSC_RDPS_FreezingRain-Accum1h_Sfc_RLatLon0.09_PT016H.grib2 2026-04-10 20:49 25K
20260410T18Z_MSC_RDPS_FreezingRain-Accum_Sfc_RLatLon0.09_PT016H.grib2 2026-04-10 20:49 78K
20260410T18Z_MSC_RDPS_GeopotentialHeight_IsbL-0001_RLatLon0.09_PT016H.grib2 2026-04-10 20:49 248K
20260410T18Z_MSC_RDPS_GeopotentialHeight_IsbL-0005_RLatLon0.09_PT016H.grib2 2026-04-10 20:49 273K
20260410T18Z_MSC_RDPS_GeopotentialHeight_IsbL-0010_RLatLon0.09_PT016H.grib2 2026-04-10 20:49 241K
20260410T18Z_MSC_RDPS_GeopotentialHeight_IsbL-0020_RLatLon0.09_PT016H.grib2 2026-04-10 20:49 242K
20260410T18Z_MSC_RDPS_GeopotentialHeight_IsbL-0030_RLatLon0.09_PT016H.grib2 2026-04-10 20:49 244K
20260410T18Z_MSC_RDPS_GeopotentialHeight_IsbL-0050_RLatLon0.09_PT016H.grib2 2026-04-10 20:49 274K
20260410T18Z_MSC_RDPS_GeopotentialHeight_IsbL-0100_RLatLon0.09_PT016H.grib2 2026-04-10 20:49 224K
20260410T18Z_MSC_RDPS_GeopotentialHeight_IsbL-0150_RLatLon0.09_PT016H.grib2 2026-04-10 20:49 264K
20260410T18Z_MSC_RDPS_GeopotentialHeight_IsbL-0175_RLatLon0.09_PT016H.grib2 2026-04-10 20:49 267K
20260410T18Z_MSC_RDPS_GeopotentialHeight_IsbL-0200_RLatLon0.09_PT016H.grib2 2026-04-10 20:49 269K
20260410T18Z_MSC_RDPS_GeopotentialHeight_IsbL-0225_RLatLon0.09_PT016H.grib2 2026-04-10 20:49 270K
20260410T18Z_MSC_RDPS_GeopotentialHeight_IsbL-0250_RLatLon0.09_PT016H.grib2 2026-04-10 20:49 269K
20260410T18Z_MSC_RDPS_GeopotentialHeight_IsbL-0275_RLatLon0.09_PT016H.grib2 2026-04-10 20:49 269K
20260410T18Z_MSC_RDPS_GeopotentialHeight_IsbL-0300_RLatLon0.09_PT016H.grib2 2026-04-10 20:49 267K
20260410T18Z_MSC_RDPS_GeopotentialHeight_IsbL-0350_RLatLon0.09_PT016H.grib2 2026-04-10 20:49 262K
20260410T18Z_MSC_RDPS_GeopotentialHeight_IsbL-0400_RLatLon0.09_PT016H.grib2 2026-04-10 20:49 257K
20260410T18Z_MSC_RDPS_GeopotentialHeight_IsbL-0450_RLatLon0.09_PT016H.grib2 2026-04-10 20:49 223K
20260410T18Z_MSC_RDPS_GeopotentialHeight_IsbL-0500_RLatLon0.09_PT016H.grib2 2026-04-10 20:49 219K
20260410T18Z_MSC_RDPS_GeopotentialHeight_IsbL-0550_RLatLon0.09_PT016H.grib2 2026-04-10 20:49 289K
20260410T18Z_MSC_RDPS_GeopotentialHeight_IsbL-0600_RLatLon0.09_PT016H.grib2 2026-04-10 20:49 285K
20260410T18Z_MSC_RDPS_GeopotentialHeight_IsbL-0650_RLatLon0.09_PT016H.grib2 2026-04-10 20:49 283K
20260410T18Z_MSC_RDPS_GeopotentialHeight_IsbL-0700_RLatLon0.09_PT016H.grib2 2026-04-10 20:49 283K
20260410T18Z_MSC_RDPS_GeopotentialHeight_IsbL-0750_RLatLon0.09_PT016H.grib2 2026-04-10 20:49 285K
20260410T18Z_MSC_RDPS_GeopotentialHeight_IsbL-0800_RLatLon0.09_PT016H.grib2 2026-04-10 20:49 292K
20260410T18Z_MSC_RDPS_GeopotentialHeight_IsbL-0850_RLatLon0.09_PT016H.grib2 2026-04-10 20:49 275K
20260410T18Z_MSC_RDPS_GeopotentialHeight_IsbL-0875_RLatLon0.09_PT016H.grib2 2026-04-10 20:49 277K
20260410T18Z_MSC_RDPS_GeopotentialHeight_IsbL-0900_RLatLon0.09_PT016H.grib2 2026-04-10 20:49 278K
20260410T18Z_MSC_RDPS_GeopotentialHeight_IsbL-0925_RLatLon0.09_PT016H.grib2 2026-04-10 20:49 280K
20260410T18Z_MSC_RDPS_GeopotentialHeight_IsbL-0950_RLatLon0.09_PT016H.grib2 2026-04-10 20:49 283K
20260410T18Z_MSC_RDPS_GeopotentialHeight_IsbL-0970_RLatLon0.09_PT016H.grib2 2026-04-10 20:49 287K
20260410T18Z_MSC_RDPS_GeopotentialHeight_IsbL-0985_RLatLon0.09_PT016H.grib2 2026-04-10 20:49 293K
20260410T18Z_MSC_RDPS_GeopotentialHeight_IsbL-1000_RLatLon0.09_PT016H.grib2 2026-04-10 20:49 302K
20260410T18Z_MSC_RDPS_GeopotentialHeight_IsbL-1015_RLatLon0.09_PT016H.grib2 2026-04-10 20:49 337K
20260410T18Z_MSC_RDPS_Humidex_Sfc_RLatLon0.09_PT016H.grib2 2026-04-10 20:49 2.3M
20260410T18Z_MSC_RDPS_IcePellets-Accum1h_Sfc_RLatLon0.09_PT016H.grib2 2026-04-10 20:49 3.4K
20260410T18Z_MSC_RDPS_IcePellets-Accum_Sfc_RLatLon0.09_PT016H.grib2 2026-04-10 20:49 9.1K
20260410T18Z_MSC_RDPS_KIndex_Sfc_RLatLon0.09_PT016H.grib2 2026-04-10 20:49 2.4M
20260410T18Z_MSC_RDPS_LatentHeatNetFlux_Sfc_RLatLon0.09_PT016H.grib2 2026-04-10 20:49 391K
20260410T18Z_MSC_RDPS_LiftedIndex-MU-VT_IsbL-0500_RLatLon0.09_PT016H.grib2 2026-04-10 20:49 2.4M
20260410T18Z_MSC_RDPS_NetLongwaveRadiationFlux-Accum_Sfc_RLatLon0.09_PT016H.grib2 2026-04-10 20:49 505K
20260410T18Z_MSC_RDPS_NetShortwaveRadiationFlux-Accum_Sfc_RLatLon0.09_PT016H.grib2 2026-04-10 20:49 509K
20260410T18Z_MSC_RDPS_PlanetaryBoundaryLayerHeight_Sfc_RLatLon0.09_PT016H.grib2 2026-04-10 20:49 1.1M
20260410T18Z_MSC_RDPS_Precip-Accum1h_Sfc_RLatLon0.09_PT016H.grib2 2026-04-10 20:49 1.3M
20260410T18Z_MSC_RDPS_Precip-Accum_Sfc_RLatLon0.09_PT016H.grib2 2026-04-10 20:49 1.7M
20260410T18Z_MSC_RDPS_PrecipRate_Sfc_RLatLon0.09_PT016H.grib2 2026-04-10 20:49 183K
20260410T18Z_MSC_RDPS_PrecipType-Instant_Sfc_RLatLon0.09_PT016H.grib2 2026-04-10 20:49 605K
20260410T18Z_MSC_RDPS_Pressure-Trend3h_Sfc_RLatLon0.09_PT016H.grib2 2026-04-10 20:49 1.2M
20260410T18Z_MSC_RDPS_Pressure_MSL_RLatLon0.09_PT016H.grib2 2026-04-10 20:49 327K
20260410T18Z_MSC_RDPS_Pressure_PVU-1.5_RLatLon0.09_PT016H.grib2 2026-04-10 20:49 2.5M
20260410T18Z_MSC_RDPS_Pressure_PVU-1_RLatLon0.09_PT016H.grib2 2026-04-10 20:49 2.4M
20260410T18Z_MSC_RDPS_Pressure_PVU-2_RLatLon0.09_PT016H.grib2 2026-04-10 20:49 2.4M
20260410T18Z_MSC_RDPS_Pressure_Sfc_RLatLon0.09_PT016H.grib2 2026-04-10 20:49 502K
20260410T18Z_MSC_RDPS_RadiativeTemp_Sfc_RLatLon0.09_PT016H.grib2 2026-04-10 20:49 305K
20260410T18Z_MSC_RDPS_Rain-Accum1h_Sfc_RLatLon0.09_PT016H.grib2 2026-04-10 20:49 566K
20260410T18Z_MSC_RDPS_Rain-Accum_Sfc_RLatLon0.09_PT016H.grib2 2026-04-10 20:49 1.3M
20260410T18Z_MSC_RDPS_RelativeHumidity_AGL-2m_RLatLon0.09_PT016H.grib2 2026-04-10 20:49 1.0M
20260410T18Z_MSC_RDPS_RelativeHumidity_IsbL-0010_RLatLon0.09_PT016H.grib2 2026-04-10 20:49 436K
20260410T18Z_MSC_RDPS_RelativeHumidity_IsbL-0020_RLatLon0.09_PT016H.grib2 2026-04-10 20:49 411K
20260410T18Z_MSC_RDPS_RelativeHumidity_IsbL-0030_RLatLon0.09_PT016H.grib2 2026-04-10 20:49 374K
20260410T18Z_MSC_RDPS_RelativeHumidity_IsbL-0050_RLatLon0.09_PT016H.grib2 2026-04-10 20:49 395K
20260410T18Z_MSC_RDPS_RelativeHumidity_IsbL-0100_RLatLon0.09_PT016H.grib2 2026-04-10 20:49 262K
20260410T18Z_MSC_RDPS_RelativeHumidity_IsbL-0150_RLatLon0.09_PT016H.grib2 2026-04-10 20:49 378K
20260410T18Z_MSC_RDPS_RelativeHumidity_IsbL-0175_RLatLon0.09_PT016H.grib2 2026-04-10 20:49 464K
20260410T18Z_MSC_RDPS_RelativeHumidity_IsbL-0200_RLatLon0.09_PT016H.grib2 2026-04-10 20:49 543K
20260410T18Z_MSC_RDPS_RelativeHumidity_IsbL-0225_RLatLon0.09_PT016H.grib2 2026-04-10 20:49 605K
20260410T18Z_MSC_RDPS_RelativeHumidity_IsbL-0250_RLatLon0.09_PT016H.grib2 2026-04-10 20:49 665K
20260410T18Z_MSC_RDPS_RelativeHumidity_IsbL-0275_RLatLon0.09_PT016H.grib2 2026-04-10 20:49 691K
20260410T18Z_MSC_RDPS_RelativeHumidity_IsbL-0300_RLatLon0.09_PT016H.grib2 2026-04-10 20:49 735K
20260410T18Z_MSC_RDPS_RelativeHumidity_IsbL-0350_RLatLon0.09_PT016H.grib2 2026-04-10 20:49 760K
20260410T18Z_MSC_RDPS_RelativeHumidity_IsbL-0400_RLatLon0.09_PT016H.grib2 2026-04-10 20:49 774K
20260410T18Z_MSC_RDPS_RelativeHumidity_IsbL-0450_RLatLon0.09_PT016H.grib2 2026-04-10 20:49 786K
20260410T18Z_MSC_RDPS_RelativeHumidity_IsbL-0500_RLatLon0.09_PT016H.grib2 2026-04-10 20:49 806K
20260410T18Z_MSC_RDPS_RelativeHumidity_IsbL-0550_RLatLon0.09_PT016H.grib2 2026-04-10 20:49 824K
20260410T18Z_MSC_RDPS_RelativeHumidity_IsbL-0600_RLatLon0.09_PT016H.grib2 2026-04-10 20:49 843K
20260410T18Z_MSC_RDPS_RelativeHumidity_IsbL-0650_RLatLon0.09_PT016H.grib2 2026-04-10 20:49 849K
20260410T18Z_MSC_RDPS_RelativeHumidity_IsbL-0700_RLatLon0.09_PT016H.grib2 2026-04-10 20:49 870K
20260410T18Z_MSC_RDPS_RelativeHumidity_IsbL-0750_RLatLon0.09_PT016H.grib2 2026-04-10 20:49 914K
20260410T18Z_MSC_RDPS_RelativeHumidity_IsbL-0800_RLatLon0.09_PT016H.grib2 2026-04-10 20:49 1.0M
20260410T18Z_MSC_RDPS_RelativeHumidity_IsbL-0850_RLatLon0.09_PT016H.grib2 2026-04-10 20:49 1.0M
20260410T18Z_MSC_RDPS_RelativeHumidity_IsbL-0875_RLatLon0.09_PT016H.grib2 2026-04-10 20:49 1.0M
20260410T18Z_MSC_RDPS_RelativeHumidity_IsbL-0900_RLatLon0.09_PT016H.grib2 2026-04-10 20:49 1.1M
20260410T18Z_MSC_RDPS_RelativeHumidity_IsbL-0925_RLatLon0.09_PT016H.grib2 2026-04-10 20:49 1.1M
20260410T18Z_MSC_RDPS_RelativeHumidity_IsbL-0950_RLatLon0.09_PT016H.grib2 2026-04-10 20:49 1.1M
20260410T18Z_MSC_RDPS_RelativeHumidity_IsbL-0970_RLatLon0.09_PT016H.grib2 2026-04-10 20:49 1.0M
20260410T18Z_MSC_RDPS_RelativeHumidity_IsbL-0985_RLatLon0.09_PT016H.grib2 2026-04-10 20:49 1.0M
20260410T18Z_MSC_RDPS_RelativeHumidity_IsbL-1000_RLatLon0.09_PT016H.grib2 2026-04-10 20:49 1.0M
20260410T18Z_MSC_RDPS_RelativeHumidity_IsbL-1015_RLatLon0.09_PT016H.grib2 2026-04-10 20:49 1.0M
20260410T18Z_MSC_RDPS_Runoff-Accum_Sfc_RLatLon0.09_PT016H.grib2 2026-04-10 20:49 42K
20260410T18Z_MSC_RDPS_SWEATIndex_Sfc_RLatLon0.09_PT016H.grib2 2026-04-10 20:49 2.4M
20260410T18Z_MSC_RDPS_SeeingIndex_EAtm_RLatLon0.09_PT016H.grib2 2026-04-10 20:49 1.1M
20260410T18Z_MSC_RDPS_SensibleHeatNetFlux_Sfc_RLatLon0.09_PT016H.grib2 2026-04-10 20:49 295K
20260410T18Z_MSC_RDPS_ShowalterIndex_IsbL-0500_RLatLon0.09_PT016H.grib2 2026-04-10 20:49 2.6M
20260410T18Z_MSC_RDPS_SkyTransparencyIndex_EAtm_RLatLon0.09_PT016H.grib2 2026-04-10 20:49 703K
20260410T18Z_MSC_RDPS_Snow-Accum1h_Sfc_RLatLon0.09_PT016H.grib2 2026-04-10 20:49 494K
20260410T18Z_MSC_RDPS_Snow-Accum_Sfc_RLatLon0.09_PT016H.grib2 2026-04-10 20:49 694K
20260410T18Z_MSC_RDPS_SnowDensity_Sfc_RLatLon0.09_PT016H.grib2 2026-04-10 20:49 172K
20260410T18Z_MSC_RDPS_SnowDepth_Sfc_RLatLon0.09_PT016H.grib2 2026-04-10 20:49 723K
20260410T18Z_MSC_RDPS_SoilTemp_DBS-0to10cm_RLatLon0.09_PT016H.grib2 2026-04-10 20:49 212K
20260410T18Z_MSC_RDPS_SoilTemp_Sfc_RLatLon0.09_PT016H.grib2 2026-04-10 20:49 286K
20260410T18Z_MSC_RDPS_SoilVolumetricIceContent_Sfc_RLatLon0.09_PT016H.grib2 2026-04-10 20:49 180K
20260410T18Z_MSC_RDPS_SoilVolumetricWaterContent_DBS-0to10cm_RLatLon0.09_PT016H.grib2 2026-04-10 20:49 237K
20260410T18Z_MSC_RDPS_SoilVolumetricWaterContent_DBS-0to1cm_RLatLon0.09_PT016H.grib2 2026-04-10 20:49 336K
20260410T18Z_MSC_RDPS_SpecificHumidity_AGL-120m_RLatLon0.09_PT016H.grib2 2026-04-10 20:49 472K
20260410T18Z_MSC_RDPS_SpecificHumidity_AGL-2m_RLatLon0.09_PT016H.grib2 2026-04-10 20:49 628K
20260410T18Z_MSC_RDPS_SpecificHumidity_AGL-40m_RLatLon0.09_PT016H.grib2 2026-04-10 20:49 476K
20260410T18Z_MSC_RDPS_SpecificHumidity_AGL-80m_RLatLon0.09_PT016H.grib2 2026-04-10 20:49 473K
20260410T18Z_MSC_RDPS_SpecificHumidity_IsbL-0001_RLatLon0.09_PT016H.grib2 2026-04-10 20:49 308K
20260410T18Z_MSC_RDPS_SpecificHumidity_IsbL-0005_RLatLon0.09_PT016H.grib2 2026-04-10 20:49 339K
20260410T18Z_MSC_RDPS_SpecificHumidity_IsbL-0010_RLatLon0.09_PT016H.grib2 2026-04-10 20:49 357K
20260410T18Z_MSC_RDPS_SpecificHumidity_IsbL-0020_RLatLon0.09_PT016H.grib2 2026-04-10 20:49 370K
20260410T18Z_MSC_RDPS_SpecificHumidity_IsbL-0030_RLatLon0.09_PT016H.grib2 2026-04-10 20:49 375K
20260410T18Z_MSC_RDPS_SpecificHumidity_IsbL-0050_RLatLon0.09_PT016H.grib2 2026-04-10 20:49 474K
20260410T18Z_MSC_RDPS_SpecificHumidity_IsbL-0100_RLatLon0.09_PT016H.grib2 2026-04-10 20:49 381K
20260410T18Z_MSC_RDPS_SpecificHumidity_IsbL-0150_RLatLon0.09_PT016H.grib2 2026-04-10 20:49 434K
20260410T18Z_MSC_RDPS_SpecificHumidity_IsbL-0175_RLatLon0.09_PT016H.grib2 2026-04-10 20:49 418K
20260410T18Z_MSC_RDPS_SpecificHumidity_IsbL-0200_RLatLon0.09_PT016H.grib2 2026-04-10 20:49 447K
20260410T18Z_MSC_RDPS_SpecificHumidity_IsbL-0225_RLatLon0.09_PT016H.grib2 2026-04-10 20:49 432K
20260410T18Z_MSC_RDPS_SpecificHumidity_IsbL-0250_RLatLon0.09_PT016H.grib2 2026-04-10 20:49 490K
20260410T18Z_MSC_RDPS_SpecificHumidity_IsbL-0275_RLatLon0.09_PT016H.grib2 2026-04-10 20:49 454K
20260410T18Z_MSC_RDPS_SpecificHumidity_IsbL-0300_RLatLon0.09_PT016H.grib2 2026-04-10 20:49 427K
20260410T18Z_MSC_RDPS_SpecificHumidity_IsbL-0350_RLatLon0.09_PT016H.grib2 2026-04-10 20:49 515K
20260410T18Z_MSC_RDPS_SpecificHumidity_IsbL-0400_RLatLon0.09_PT016H.grib2 2026-04-10 20:49 495K
20260410T18Z_MSC_RDPS_SpecificHumidity_IsbL-0450_RLatLon0.09_PT016H.grib2 2026-04-10 20:49 553K
20260410T18Z_MSC_RDPS_SpecificHumidity_IsbL-0500_RLatLon0.09_PT016H.grib2 2026-04-10 20:49 494K
20260410T18Z_MSC_RDPS_SpecificHumidity_IsbL-0550_RLatLon0.09_PT016H.grib2 2026-04-10 20:49 569K
20260410T18Z_MSC_RDPS_SpecificHumidity_IsbL-0600_RLatLon0.09_PT016H.grib2 2026-04-10 20:49 613K
20260410T18Z_MSC_RDPS_SpecificHumidity_IsbL-0650_RLatLon0.09_PT016H.grib2 2026-04-10 20:49 526K
20260410T18Z_MSC_RDPS_SpecificHumidity_IsbL-0700_RLatLon0.09_PT016H.grib2 2026-04-10 20:49 565K
20260410T18Z_MSC_RDPS_SpecificHumidity_IsbL-0750_RLatLon0.09_PT016H.grib2 2026-04-10 20:49 619K
20260410T18Z_MSC_RDPS_SpecificHumidity_IsbL-0800_RLatLon0.09_PT016H.grib2 2026-04-10 20:49 691K
20260410T18Z_MSC_RDPS_SpecificHumidity_IsbL-0850_RLatLon0.09_PT016H.grib2 2026-04-10 20:49 773K
20260410T18Z_MSC_RDPS_SpecificHumidity_IsbL-0875_RLatLon0.09_PT016H.grib2 2026-04-10 20:49 794K
20260410T18Z_MSC_RDPS_SpecificHumidity_IsbL-0900_RLatLon0.09_PT016H.grib2 2026-04-10 20:49 805K
20260410T18Z_MSC_RDPS_SpecificHumidity_IsbL-0925_RLatLon0.09_PT016H.grib2 2026-04-10 20:49 808K
20260410T18Z_MSC_RDPS_SpecificHumidity_IsbL-0950_RLatLon0.09_PT016H.grib2 2026-04-10 20:49 813K
20260410T18Z_MSC_RDPS_SpecificHumidity_IsbL-0970_RLatLon0.09_PT016H.grib2 2026-04-10 20:49 808K
20260410T18Z_MSC_RDPS_SpecificHumidity_IsbL-0985_RLatLon0.09_PT016H.grib2 2026-04-10 20:49 660K
20260410T18Z_MSC_RDPS_SpecificHumidity_IsbL-1000_RLatLon0.09_PT016H.grib2 2026-04-10 20:49 651K
20260410T18Z_MSC_RDPS_SpecificHumidity_IsbL-1015_RLatLon0.09_PT016H.grib2 2026-04-10 20:49 641K
20260410T18Z_MSC_RDPS_SpecificHumidity_Sfc_RLatLon0.09_PT016H.grib2 2026-04-10 20:49 275K
20260410T18Z_MSC_RDPS_StormRelativeHelicity_EtaL-10000_RLatLon0.09_PT016H.grib2 2026-04-10 20:49 1.1M
20260410T18Z_MSC_RDPS_StormSeverityIndex_EtaL-10000_RLatLon0.09_PT016H.grib2 2026-04-10 20:49 1.2M
20260410T18Z_MSC_RDPS_Thickness_IsbL-0850to0700_RLatLon0.09_PT016H.grib2 2026-04-10 20:49 180K
20260410T18Z_MSC_RDPS_Thickness_IsbL-1000to0500_RLatLon0.09_PT016H.grib2 2026-04-10 20:49 137K
20260410T18Z_MSC_RDPS_Thickness_IsbL-1000to0850_RLatLon0.09_PT016H.grib2 2026-04-10 20:49 185K
20260410T18Z_MSC_RDPS_TotalCloudCover_Sfc_RLatLon0.09_PT016H.grib2 2026-04-10 20:49 667K
20260410T18Z_MSC_RDPS_TotalTotalsIndex_Sfc_RLatLon0.09_PT016H.grib2 2026-04-10 20:49 2.4M
20260410T18Z_MSC_RDPS_UVIndex-ClearSky_Sfc_RLatLon0.09_PT016H.grib2 2026-04-10 20:49 103K
20260410T18Z_MSC_RDPS_UVIndex_Sfc_RLatLon0.09_PT016H.grib2 2026-04-10 20:49 199K
20260410T18Z_MSC_RDPS_UpwardLongwaveRadiationFlux_NTAtm_RLatLon0.09_PT016H.grib2 2026-04-10 20:49 479K
20260410T18Z_MSC_RDPS_UpwardShortwaveRadiationFlux_NTAtm_RLatLon0.09_PT016H.grib2 2026-04-10 20:49 163K
20260410T18Z_MSC_RDPS_VerticalVelocity_IsbL-0250_RLatLon0.09_PT016H.grib2 2026-04-10 20:49 459K
20260410T18Z_MSC_RDPS_VerticalVelocity_IsbL-0500_RLatLon0.09_PT016H.grib2 2026-04-10 20:49 546K
20260410T18Z_MSC_RDPS_VerticalVelocity_IsbL-0700_RLatLon0.09_PT016H.grib2 2026-04-10 20:49 629K
20260410T18Z_MSC_RDPS_VerticalVelocity_IsbL-0850_RLatLon0.09_PT016H.grib2 2026-04-10 20:49 697K
20260410T18Z_MSC_RDPS_VerticalWindShear_EtaL-6500_RLatLon0.09_PT016H.grib2 2026-04-10 20:49 1.2M
20260410T18Z_MSC_RDPS_WindChill_Sfc_RLatLon0.09_PT016H.grib2 2026-04-10 20:49 1.1M
20260410T18Z_MSC_RDPS_WindDir_AGL-10m_RLatLon0.09_PT016H.grib2 2026-04-10 20:49 953K
20260410T18Z_MSC_RDPS_WindDir_AGL-120m_RLatLon0.09_PT016H.grib2 2026-04-10 20:49 586K
20260410T18Z_MSC_RDPS_WindDir_AGL-40m_RLatLon0.09_PT016H.grib2 2026-04-10 20:49 620K
20260410T18Z_MSC_RDPS_WindDir_AGL-80m_RLatLon0.09_PT016H.grib2 2026-04-10 20:49 598K
20260410T18Z_MSC_RDPS_WindDir_IsbL-0001_RLatLon0.09_PT016H.grib2 2026-04-10 20:49 261K
20260410T18Z_MSC_RDPS_WindDir_IsbL-0005_RLatLon0.09_PT016H.grib2 2026-04-10 20:49 322K
20260410T18Z_MSC_RDPS_WindDir_IsbL-0010_RLatLon0.09_PT016H.grib2 2026-04-10 20:49 342K
20260410T18Z_MSC_RDPS_WindDir_IsbL-0020_RLatLon0.09_PT016H.grib2 2026-04-10 20:49 368K
20260410T18Z_MSC_RDPS_WindDir_IsbL-0030_RLatLon0.09_PT016H.grib2 2026-04-10 20:49 362K
20260410T18Z_MSC_RDPS_WindDir_IsbL-0050_RLatLon0.09_PT016H.grib2 2026-04-10 20:49 392K
20260410T18Z_MSC_RDPS_WindDir_IsbL-0100_RLatLon0.09_PT016H.grib2 2026-04-10 20:49 383K
20260410T18Z_MSC_RDPS_WindDir_IsbL-0150_RLatLon0.09_PT016H.grib2 2026-04-10 20:49 371K
20260410T18Z_MSC_RDPS_WindDir_IsbL-0175_RLatLon0.09_PT016H.grib2 2026-04-10 20:49 393K
20260410T18Z_MSC_RDPS_WindDir_IsbL-0200_RLatLon0.09_PT016H.grib2 2026-04-10 20:49 405K
20260410T18Z_MSC_RDPS_WindDir_IsbL-0225_RLatLon0.09_PT016H.grib2 2026-04-10 20:49 409K
20260410T18Z_MSC_RDPS_WindDir_IsbL-0250_RLatLon0.09_PT016H.grib2 2026-04-10 20:49 413K
20260410T18Z_MSC_RDPS_WindDir_IsbL-0275_RLatLon0.09_PT016H.grib2 2026-04-10 20:49 435K
20260410T18Z_MSC_RDPS_WindDir_IsbL-0300_RLatLon0.09_PT016H.grib2 2026-04-10 20:49 443K
20260410T18Z_MSC_RDPS_WindDir_IsbL-0350_RLatLon0.09_PT016H.grib2 2026-04-10 20:49 474K
20260410T18Z_MSC_RDPS_WindDir_IsbL-0400_RLatLon0.09_PT016H.grib2 2026-04-10 20:49 509K
20260410T18Z_MSC_RDPS_WindDir_IsbL-0450_RLatLon0.09_PT016H.grib2 2026-04-10 20:49 540K
20260410T18Z_MSC_RDPS_WindDir_IsbL-0500_RLatLon0.09_PT016H.grib2 2026-04-10 20:49 546K
20260410T18Z_MSC_RDPS_WindDir_IsbL-0550_RLatLon0.09_PT016H.grib2 2026-04-10 20:49 560K
20260410T18Z_MSC_RDPS_WindDir_IsbL-0600_RLatLon0.09_PT016H.grib2 2026-04-10 20:49 586K
20260410T18Z_MSC_RDPS_WindDir_IsbL-0650_RLatLon0.09_PT016H.grib2 2026-04-10 20:49 624K
20260410T18Z_MSC_RDPS_WindDir_IsbL-0700_RLatLon0.09_PT016H.grib2 2026-04-10 20:49 655K
20260410T18Z_MSC_RDPS_WindDir_IsbL-0750_RLatLon0.09_PT016H.grib2 2026-04-10 20:49 697K
20260410T18Z_MSC_RDPS_WindDir_IsbL-0800_RLatLon0.09_PT016H.grib2 2026-04-10 20:49 757K
20260410T18Z_MSC_RDPS_WindDir_IsbL-0850_RLatLon0.09_PT016H.grib2 2026-04-10 20:49 831K
20260410T18Z_MSC_RDPS_WindDir_IsbL-0875_RLatLon0.09_PT016H.grib2 2026-04-10 20:49 855K
20260410T18Z_MSC_RDPS_WindDir_IsbL-0900_RLatLon0.09_PT016H.grib2 2026-04-10 20:49 869K
20260410T18Z_MSC_RDPS_WindDir_IsbL-0925_RLatLon0.09_PT016H.grib2 2026-04-10 20:49 882K
20260410T18Z_MSC_RDPS_WindDir_IsbL-0950_RLatLon0.09_PT016H.grib2 2026-04-10 20:49 889K
20260410T18Z_MSC_RDPS_WindDir_IsbL-0970_RLatLon0.09_PT016H.grib2 2026-04-10 20:49 899K
20260410T18Z_MSC_RDPS_WindDir_IsbL-0985_RLatLon0.09_PT016H.grib2 2026-04-10 20:49 911K
20260410T18Z_MSC_RDPS_WindDir_IsbL-1000_RLatLon0.09_PT016H.grib2 2026-04-10 20:49 927K
20260410T18Z_MSC_RDPS_WindDir_IsbL-1015_RLatLon0.09_PT016H.grib2 2026-04-10 20:49 944K
20260410T18Z_MSC_RDPS_WindGust-Max_AGL-10m_RLatLon0.09_PT016H.grib2 2026-04-10 20:49 1.0M
20260410T18Z_MSC_RDPS_WindGust-Min_AGL-10m_RLatLon0.09_PT016H.grib2 2026-04-10 20:49 1.0M
20260410T18Z_MSC_RDPS_WindGust_AGL-10m_RLatLon0.09_PT016H.grib2 2026-04-10 20:49 1.0M
20260410T18Z_MSC_RDPS_WindSpeed_AGL-10m_RLatLon0.09_PT016H.grib2 2026-04-10 20:49 837K
20260410T18Z_MSC_RDPS_WindSpeed_AGL-120m_RLatLon0.09_PT016H.grib2 2026-04-10 20:49 540K
20260410T18Z_MSC_RDPS_WindSpeed_AGL-40m_RLatLon0.09_PT016H.grib2 2026-04-10 20:49 542K
20260410T18Z_MSC_RDPS_WindSpeed_AGL-80m_RLatLon0.09_PT016H.grib2 2026-04-10 20:49 541K
20260410T18Z_MSC_RDPS_WindSpeed_IsbL-0001_RLatLon0.09_PT016H.grib2 2026-04-10 20:49 270K
20260410T18Z_MSC_RDPS_WindSpeed_IsbL-0005_RLatLon0.09_PT016H.grib2 2026-04-10 20:49 314K
20260410T18Z_MSC_RDPS_WindSpeed_IsbL-0010_RLatLon0.09_PT016H.grib2 2026-04-10 20:49 318K
20260410T18Z_MSC_RDPS_WindSpeed_IsbL-0020_RLatLon0.09_PT016H.grib2 2026-04-10 20:49 346K
20260410T18Z_MSC_RDPS_WindSpeed_IsbL-0030_RLatLon0.09_PT016H.grib2 2026-04-10 20:49 345K
20260410T18Z_MSC_RDPS_WindSpeed_IsbL-0050_RLatLon0.09_PT016H.grib2 2026-04-10 20:49 376K
20260410T18Z_MSC_RDPS_WindSpeed_IsbL-0100_RLatLon0.09_PT016H.grib2 2026-04-10 20:49 488K
20260410T18Z_MSC_RDPS_WindSpeed_IsbL-0150_RLatLon0.09_PT016H.grib2 2026-04-10 20:49 476K
20260410T18Z_MSC_RDPS_WindSpeed_IsbL-0175_RLatLon0.09_PT016H.grib2 2026-04-10 20:49 400K
20260410T18Z_MSC_RDPS_WindSpeed_IsbL-0200_RLatLon0.09_PT016H.grib2 2026-04-10 20:49 418K
20260410T18Z_MSC_RDPS_WindSpeed_IsbL-0225_RLatLon0.09_PT016H.grib2 2026-04-10 20:49 425K
20260410T18Z_MSC_RDPS_WindSpeed_IsbL-0250_RLatLon0.09_PT016H.grib2 2026-04-10 20:49 448K
20260410T18Z_MSC_RDPS_WindSpeed_IsbL-0275_RLatLon0.09_PT016H.grib2 2026-04-10 20:49 464K
20260410T18Z_MSC_RDPS_WindSpeed_IsbL-0300_RLatLon0.09_PT016H.grib2 2026-04-10 20:49 460K
20260410T18Z_MSC_RDPS_WindSpeed_IsbL-0350_RLatLon0.09_PT016H.grib2 2026-04-10 20:49 472K
20260410T18Z_MSC_RDPS_WindSpeed_IsbL-0400_RLatLon0.09_PT016H.grib2 2026-04-10 20:49 457K
20260410T18Z_MSC_RDPS_WindSpeed_IsbL-0450_RLatLon0.09_PT016H.grib2 2026-04-10 20:49 459K
20260410T18Z_MSC_RDPS_WindSpeed_IsbL-0500_RLatLon0.09_PT016H.grib2 2026-04-10 20:49 462K
20260410T18Z_MSC_RDPS_WindSpeed_IsbL-0550_RLatLon0.09_PT016H.grib2 2026-04-10 20:49 584K
20260410T18Z_MSC_RDPS_WindSpeed_IsbL-0600_RLatLon0.09_PT016H.grib2 2026-04-10 20:49 595K
20260410T18Z_MSC_RDPS_WindSpeed_IsbL-0650_RLatLon0.09_PT016H.grib2 2026-04-10 20:49 659K
20260410T18Z_MSC_RDPS_WindSpeed_IsbL-0700_RLatLon0.09_PT016H.grib2 2026-04-10 20:49 685K
20260410T18Z_MSC_RDPS_WindSpeed_IsbL-0750_RLatLon0.09_PT016H.grib2 2026-04-10 20:49 716K
20260410T18Z_MSC_RDPS_WindSpeed_IsbL-0800_RLatLon0.09_PT016H.grib2 2026-04-10 20:49 763K
20260410T18Z_MSC_RDPS_WindSpeed_IsbL-0850_RLatLon0.09_PT016H.grib2 2026-04-10 20:49 822K
20260410T18Z_MSC_RDPS_WindSpeed_IsbL-0875_RLatLon0.09_PT016H.grib2 2026-04-10 20:49 841K
20260410T18Z_MSC_RDPS_WindSpeed_IsbL-0900_RLatLon0.09_PT016H.grib2 2026-04-10 20:49 853K
20260410T18Z_MSC_RDPS_WindSpeed_IsbL-0925_RLatLon0.09_PT016H.grib2 2026-04-10 20:49 864K
20260410T18Z_MSC_RDPS_WindSpeed_IsbL-0950_RLatLon0.09_PT016H.grib2 2026-04-10 20:49 869K
20260410T18Z_MSC_RDPS_WindSpeed_IsbL-0970_RLatLon0.09_PT016H.grib2 2026-04-10 20:49 869K
20260410T18Z_MSC_RDPS_WindSpeed_IsbL-0985_RLatLon0.09_PT016H.grib2 2026-04-10 20:49 859K
20260410T18Z_MSC_RDPS_WindSpeed_IsbL-1000_RLatLon0.09_PT016H.grib2 2026-04-10 20:49 852K
20260410T18Z_MSC_RDPS_WindSpeed_IsbL-1015_RLatLon0.09_PT016H.grib2 2026-04-10 20:49 840K
20260410T18Z_MSC_RDPS_WindU_AGL-10m_RLatLon0.09_PT016H.grib2 2026-04-10 20:49 431K
20260410T18Z_MSC_RDPS_WindU_AGL-120m_RLatLon0.09_PT016H.grib2 2026-04-10 20:49 419K
20260410T18Z_MSC_RDPS_WindU_AGL-40m_RLatLon0.09_PT016H.grib2 2026-04-10 20:49 539K
20260410T18Z_MSC_RDPS_WindU_AGL-80m_RLatLon0.09_PT016H.grib2 2026-04-10 20:49 421K
20260410T18Z_MSC_RDPS_WindU_IsbL-0001_RLatLon0.09_PT016H.grib2 2026-04-10 20:49 266K
20260410T18Z_MSC_RDPS_WindU_IsbL-0005_RLatLon0.09_PT016H.grib2 2026-04-10 20:49 241K
20260410T18Z_MSC_RDPS_WindU_IsbL-0010_RLatLon0.09_PT016H.grib2 2026-04-10 20:49 249K
20260410T18Z_MSC_RDPS_WindU_IsbL-0020_RLatLon0.09_PT016H.grib2 2026-04-10 20:49 343K
20260410T18Z_MSC_RDPS_WindU_IsbL-0030_RLatLon0.09_PT016H.grib2 2026-04-10 20:49 265K
20260410T18Z_MSC_RDPS_WindU_IsbL-0050_RLatLon0.09_PT016H.grib2 2026-04-10 20:49 284K
20260410T18Z_MSC_RDPS_WindU_IsbL-0100_RLatLon0.09_PT016H.grib2 2026-04-10 20:49 345K
20260410T18Z_MSC_RDPS_WindU_IsbL-0150_RLatLon0.09_PT016H.grib2 2026-04-10 20:49 390K
20260410T18Z_MSC_RDPS_WindU_IsbL-0175_RLatLon0.09_PT016H.grib2 2026-04-10 20:49 417K
20260410T18Z_MSC_RDPS_WindU_IsbL-0200_RLatLon0.09_PT016H.grib2 2026-04-10 20:49 431K
20260410T18Z_MSC_RDPS_WindU_IsbL-0225_RLatLon0.09_PT016H.grib2 2026-04-10 20:49 338K
20260410T18Z_MSC_RDPS_WindU_IsbL-0250_RLatLon0.09_PT016H.grib2 2026-04-10 20:49 340K
20260410T18Z_MSC_RDPS_WindU_IsbL-0275_RLatLon0.09_PT016H.grib2 2026-04-10 20:49 353K
20260410T18Z_MSC_RDPS_WindU_IsbL-0300_RLatLon0.09_PT016H.grib2 2026-04-10 20:49 350K
20260410T18Z_MSC_RDPS_WindU_IsbL-0350_RLatLon0.09_PT016H.grib2 2026-04-10 20:49 358K
20260410T18Z_MSC_RDPS_WindU_IsbL-0400_RLatLon0.09_PT016H.grib2 2026-04-10 20:49 363K
20260410T18Z_MSC_RDPS_WindU_IsbL-0450_RLatLon0.09_PT016H.grib2 2026-04-10 20:49 468K
20260410T18Z_MSC_RDPS_WindU_IsbL-0500_RLatLon0.09_PT016H.grib2 2026-04-10 20:49 470K
20260410T18Z_MSC_RDPS_WindU_IsbL-0550_RLatLon0.09_PT016H.grib2 2026-04-10 20:49 474K
20260410T18Z_MSC_RDPS_WindU_IsbL-0600_RLatLon0.09_PT016H.grib2 2026-04-10 20:49 483K
20260410T18Z_MSC_RDPS_WindU_IsbL-0650_RLatLon0.09_PT016H.grib2 2026-04-10 20:49 501K
20260410T18Z_MSC_RDPS_WindU_IsbL-0700_RLatLon0.09_PT016H.grib2 2026-04-10 20:49 508K
20260410T18Z_MSC_RDPS_WindU_IsbL-0750_RLatLon0.09_PT016H.grib2 2026-04-10 20:49 536K
20260410T18Z_MSC_RDPS_WindU_IsbL-0800_RLatLon0.09_PT016H.grib2 2026-04-10 20:49 578K
20260410T18Z_MSC_RDPS_WindU_IsbL-0850_RLatLon0.09_PT016H.grib2 2026-04-10 20:49 629K
20260410T18Z_MSC_RDPS_WindU_IsbL-0875_RLatLon0.09_PT016H.grib2 2026-04-10 20:49 646K
20260410T18Z_MSC_RDPS_WindU_IsbL-0900_RLatLon0.09_PT016H.grib2 2026-04-10 20:49 655K
20260410T18Z_MSC_RDPS_WindU_IsbL-0925_RLatLon0.09_PT016H.grib2 2026-04-10 20:49 662K
20260410T18Z_MSC_RDPS_WindU_IsbL-0950_RLatLon0.09_PT016H.grib2 2026-04-10 20:49 663K
20260410T18Z_MSC_RDPS_WindU_IsbL-0970_RLatLon0.09_PT016H.grib2 2026-04-10 20:49 661K
20260410T18Z_MSC_RDPS_WindU_IsbL-0985_RLatLon0.09_PT016H.grib2 2026-04-10 20:49 795K
20260410T18Z_MSC_RDPS_WindU_IsbL-1000_RLatLon0.09_PT016H.grib2 2026-04-10 20:49 789K
20260410T18Z_MSC_RDPS_WindU_IsbL-1015_RLatLon0.09_PT016H.grib2 2026-04-10 20:49 780K
20260410T18Z_MSC_RDPS_WindV_AGL-10m_RLatLon0.09_PT016H.grib2 2026-04-10 20:49 431K
20260410T18Z_MSC_RDPS_WindV_AGL-120m_RLatLon0.09_PT016H.grib2 2026-04-10 20:49 420K
20260410T18Z_MSC_RDPS_WindV_AGL-40m_RLatLon0.09_PT016H.grib2 2026-04-10 20:49 539K
20260410T18Z_MSC_RDPS_WindV_AGL-80m_RLatLon0.09_PT016H.grib2 2026-04-10 20:49 537K
20260410T18Z_MSC_RDPS_WindV_IsbL-0001_RLatLon0.09_PT016H.grib2 2026-04-10 20:49 252K
20260410T18Z_MSC_RDPS_WindV_IsbL-0005_RLatLon0.09_PT016H.grib2 2026-04-10 20:49 239K
20260410T18Z_MSC_RDPS_WindV_IsbL-0010_RLatLon0.09_PT016H.grib2 2026-04-10 20:49 348K
20260410T18Z_MSC_RDPS_WindV_IsbL-0020_RLatLon0.09_PT016H.grib2 2026-04-10 20:49 375K
20260410T18Z_MSC_RDPS_WindV_IsbL-0030_RLatLon0.09_PT016H.grib2 2026-04-10 20:49 374K
20260410T18Z_MSC_RDPS_WindV_IsbL-0050_RLatLon0.09_PT016H.grib2 2026-04-10 20:49 401K
20260410T18Z_MSC_RDPS_WindV_IsbL-0100_RLatLon0.09_PT016H.grib2 2026-04-10 20:49 435K
20260410T18Z_MSC_RDPS_WindV_IsbL-0150_RLatLon0.09_PT016H.grib2 2026-04-10 20:49 387K
20260410T18Z_MSC_RDPS_WindV_IsbL-0175_RLatLon0.09_PT016H.grib2 2026-04-10 20:49 414K
20260410T18Z_MSC_RDPS_WindV_IsbL-0200_RLatLon0.09_PT016H.grib2 2026-04-10 20:49 334K
20260410T18Z_MSC_RDPS_WindV_IsbL-0225_RLatLon0.09_PT016H.grib2 2026-04-10 20:49 339K
20260410T18Z_MSC_RDPS_WindV_IsbL-0250_RLatLon0.09_PT016H.grib2 2026-04-10 20:49 339K
20260410T18Z_MSC_RDPS_WindV_IsbL-0275_RLatLon0.09_PT016H.grib2 2026-04-10 20:49 351K
20260410T18Z_MSC_RDPS_WindV_IsbL-0300_RLatLon0.09_PT016H.grib2 2026-04-10 20:49 347K
20260410T18Z_MSC_RDPS_WindV_IsbL-0350_RLatLon0.09_PT016H.grib2 2026-04-10 20:49 354K
20260410T18Z_MSC_RDPS_WindV_IsbL-0400_RLatLon0.09_PT016H.grib2 2026-04-10 20:49 359K
20260410T18Z_MSC_RDPS_WindV_IsbL-0450_RLatLon0.09_PT016H.grib2 2026-04-10 20:49 361K
20260410T18Z_MSC_RDPS_WindV_IsbL-0500_RLatLon0.09_PT016H.grib2 2026-04-10 20:49 465K
20260410T18Z_MSC_RDPS_WindV_IsbL-0550_RLatLon0.09_PT016H.grib2 2026-04-10 20:49 469K
20260410T18Z_MSC_RDPS_WindV_IsbL-0600_RLatLon0.09_PT016H.grib2 2026-04-10 20:49 478K
20260410T18Z_MSC_RDPS_WindV_IsbL-0650_RLatLon0.09_PT016H.grib2 2026-04-10 20:49 480K
20260410T18Z_MSC_RDPS_WindV_IsbL-0700_RLatLon0.09_PT016H.grib2 2026-04-10 20:49 504K
20260410T18Z_MSC_RDPS_WindV_IsbL-0750_RLatLon0.09_PT016H.grib2 2026-04-10 20:49 532K
20260410T18Z_MSC_RDPS_WindV_IsbL-0800_RLatLon0.09_PT016H.grib2 2026-04-10 20:49 574K
20260410T18Z_MSC_RDPS_WindV_IsbL-0850_RLatLon0.09_PT016H.grib2 2026-04-10 20:49 626K
20260410T18Z_MSC_RDPS_WindV_IsbL-0875_RLatLon0.09_PT016H.grib2 2026-04-10 20:49 643K
20260410T18Z_MSC_RDPS_WindV_IsbL-0900_RLatLon0.09_PT016H.grib2 2026-04-10 20:49 653K
20260410T18Z_MSC_RDPS_WindV_IsbL-0925_RLatLon0.09_PT016H.grib2 2026-04-10 20:49 660K
20260410T18Z_MSC_RDPS_WindV_IsbL-0950_RLatLon0.09_PT016H.grib2 2026-04-10 20:49 661K
20260410T18Z_MSC_RDPS_WindV_IsbL-0970_RLatLon0.09_PT016H.grib2 2026-04-10 20:49 660K
20260410T18Z_MSC_RDPS_WindV_IsbL-0985_RLatLon0.09_PT016H.grib2 2026-04-10 20:49 795K
20260410T18Z_MSC_RDPS_WindV_IsbL-1000_RLatLon0.09_PT016H.grib2 2026-04-10 20:49 789K
20260410T18Z_MSC_RDPS_WindV_IsbL-1015_RLatLon0.09_PT016H.grib2 2026-04-10 20:49 779K